Location: Casteau
(50.5142°N, 4.0161°E)
Time: 20:36:22
(UTC+00:00)

Transit 2A - Pass Details

Date: 04 August 2021
Orbit: 594 x 964 km, 66.7° (Epoch: 27 September)

Event Time Altitude Azimuth Distance (km) Brightness Sun altitude
Rises 06:56:47 0° 249° (WSW) 2,879 8.5 23.7°
Reaches altitude 10° 06:59:12 10° 261° (W) 2,011 7.7 24.1°
Maximum altitude 07:03:13 31° 323° (NW) 1,177 6.9 24.7°
Drops below altitude 10° 07:07:34 10° 26° (NNE) 2,187 8.7 25.4°
Sets 07:10:18 0° 36° (NE) 3,177 9.6 25.8°
